[Iaude] MPEC V36: 2023 VU [a=1.46,e=0.38,i=21.4,H=26.1]
    mpec at marsden.cfa.harvard.edu 
    mpec at marsden.cfa.harvard.edu
       
    Sat Nov  4 18:12:42 EDT 2023
    
    
  
M.P.E.C. 2023-V36                              Issued 2023 November 4, 22:11 UT
     The Minor Planet Electronic Circulars contain information on unusual
         minor planets, routine data on comets and natural satellites,
         and occasional editorial announcements.  They are published
    on behalf of Division F of the International Astronomical Union by the
          Minor Planet Center, Smithsonian Astrophysical Observatory,
                          Cambridge, MA 02138, U.S.A.
			  
             Prepared using the Tamkin Foundation Computer Network
                              MPC at CFA.HARVARD.EDU
            URL https://www.minorplanetcenter.net/    ISSN 1523-6714
                                    2023 VU                                     
Observations:
     K23V00U* C2023 11 04.30709 03 07 38.44 +47 30 10.2          17.54RUEV036I41
     K23V00U  C2023 11 04.30744 03 07 40.03 +47 29 50.1          17.54RUEV036I41
     K23V00U  C2023 11 04.35937 03 11 41.85 +46 36 54.7          18.08gUEV036I41
     K23V00U  C2023 11 04.35972 03 11 43.47 +46 36 32.7          18.08gUEV036I41
     K23V00U mC2023 11 04.43838803 17 58.560+45 07 01.96         17.43GVEV036I52
     K23V00U mC2023 11 04.43851103 17 59.165+45 06 53.14         17.51GVEV036I52
     K23V00U mC2023 11 04.43863403 17 59.780+45 06 44.17         17.47GVEV036I52
     K23V00U mC2023 11 04.43875703 18 00.400+45 06 35.14         17.36GVEV036I52
     K23V00U KC2023 11 04.53155203 27 43.88 +43 08 53.0          17.4 GVEV036900
     K23V00U KC2023 11 04.53565403 28 05.48 +43 03 27.5          18.0 GVEV036900
     K23V00U KC2023 11 04.57292603 31 22.79 +42 12 31.9          17.1 GVEV036900
     K23V00U KC2023 11 04.57857103 31 52.86 +42 04 32.0          17.0 GVEV036900
     K23V00U KC2023 11 04.75206 03 49 18.51 +37 11 58.4          16.7 GXEV036G02
     K23V00U KC2023 11 04.75392 03 49 29.88 +37 08 35.1          16.7 GXEV036G02
     K23V00U KC2023 11 04.75568 03 49 40.64 +37 05 23.5          16.6 GXEV036G02
     K23V00U KC2023 11 04.79838003 54 02.681+35 42 44.17         16.7 GVEV036Z80
     K23V00U KC2023 11 04.80339103 54 33.979+35 32 59.03         16.5 GVEV036Z80
     K23V00U KC2023 11 04.80839703 55 05.210+35 23 10.25         17.0 GVEV036Z80
     K23V00U KC2023 11 04.80943103 55 11.791+35 21 01.44         17.1 GVEV036J95
     K23V00U KC2023 11 04.80994703 55 15.022+35 20 01.00         17.0 GVEV036J95
     K23V00U KC2023 11 04.81063503 55 19.301+35 18 39.42         16.9 GVEV036J95
     K23V00U KC2023 11 04.81152803 55 24.895+35 16 53.51         17.1 GVEV036J95
     K23V00U KC2023 11 04.84818903 59 22.06 +34 04 03.9          17.0 GXEV036958
     K23V00U KC2023 11 04.85232303 59 47.97 +33 55 27.2          16.6 GXEV036958
     K23V00U KC2023 11 04.85636004 00 13.25 +33 46 59.9          17.3 GXEV036958
     K23V00U KC2023 11 04.88806 04 03 12.98 +32 39 58.1          17.2 VqEV036L04
     K23V00U KC2023 11 04.88957 04 03 22.33 +32 36 37.2          17.2 VqEV036L04
     K23V00U KC2023 11 04.89232 04 03 39.37 +32 30 29.5          17.0 VqEV036L04
     K23V00U KC2023 11 04.89344 04 03 46.31 +32 27 59.7          17.1 VqEV036L04
     K23V00U KC2023 11 04.89485 04 03 55.05 +32 24 50.3          17.0 VqEV036L04
Observer details:
900 Moriyama.  Observer Y. Ikari.  0.26-m f/7.0 reflector + CCD.
958 Observatoire de Dax.  Observers P. Dupouy, J. B. de Vanssay.  Measurer P.
    Dupouy.  0.43-m f/2.7 Reflector + CCD.
G02 KYSUCE Observatory, Kysucke Nove Mesto.  Observer M. Urbanik.  0.40-m
    f/6.8 Corrected Dall-Kirkham + CCD.
I41 Palomar Mountain--ZTF.  Observers K. Venkataramani, T. Prince, G. Helou,
    Q.-Z. Ye, D. Kulkarni, V. Swain, C. Y. Hsu, Y. Cheng, T. Batra.  Measurers
    F. Masci, D. Shupe, K. Venkataramani, Q.-Z. Ye.  1.2-m f/2.44 Oschin-
    Schmidt + CCD.
I52 Steward Observatory, Mt. Lemmon Station.  Observer D. Rankin.  Measurers
    E. C. Beshore, D. Fay, J. B. Fazekas, D. C. Fuls, A. R. Gibbs, A. D.
    Grauer, H. Groeller, J. K. Hogan, R. A. Kowalski, S. M. Larson, G. J.
    Leonard, D. Rankin, R. L. Seaman, F. C. Shelly, K. W. Wierzchos.  1.0-m
    prime focus + CCD.
J95 Great Shefford.  Observer P. Birtwhistle.  0.41-m f/6.3 Schmidt-Cassegrain
    + CCD.
L04 ROASTERR-1 Observatory, Cluj-Napoca.  Observer L. Hudin.  0.3-m f/5
    reflector + CCD.
Z80 Northolt Branch Observatory.  Observer G. Wells.  Measurers G. Wells, D.
    Bamberger.  0.25-m f/8.0 Ritchey-Chretien + CCD.
Orbital elements:
2023 VU                                                  Earth MOID = 0.0053 AU
Epoch 2023 Sept. 13.0 TT = JDT 2460200.5                Bell                    
M 308.19818              (2000.0)            P               Q                  
n   0.55865915     Peri.  230.11201     -0.00664456     -0.96938411             
a   1.4600625      Node   222.30716     +0.99211441     +0.02433225             
e   0.3843484      Incl.   21.38711     +0.12515926     -0.24434073             
P   1.76           H   26.19          G   0.15           U   7                  
Residuals in seconds of arc
231104 I41  0.1-  0.2+    231104 900  0.1-  0.3-    231104 J95  0.2-  0.2+
231104 I41  0.3-  0.6+    231104 900  0.2+  1.1-    231104 J95  0.1-  0.2+
231104 I41  0.7+  0.7-    231104 G02  0.4-  0.6-    231104 958  0.0   0.4-
231104 I41  0.4+  0.4-    231104 G02  0.0   1.4-    231104 958  0.2+  0.1-
231104 I52  0.1+  0.1-    231104 G02  0.4+  0.8-    231104 958  0.1+  0.5+
231104 I52  0.0   0.0     231104 Z80  0.4-  0.0     231104 L04  0.4+  0.8-
231104 I52  0.0   0.0     231104 Z80  0.4+  0.2+    231104 L04  0.5+  0.7-
231104 I52  0.1+  0.1-    231104 Z80  0.5+  0.4+    231104 L04  0.6+  1.1-
231104 900  0.1-  0.2-    231104 J95  0.1-  0.3-    231104 L04  0.6+  0.9-
231104 900  0.2-  0.5-    231104 J95  0.1+  0.2+    231104 L04  0.6+  1.1-
Ephemeris:
2023 VU                  a,e,i = 1.46, 0.38, 21                  q = 0.8989
Date    TT    R. A. (2000) Decl.     Delta      r    Elong.  Phase     V
2023 10 05    00 00 11.1 +60 44 24   0.2624  1.1646   123.1    46.0    25.4
...
2023 10 20    00 01 04.9 +62 49 17   0.1372  1.0796   124.5    49.5    23.9
...
2023 10 28    00 19 38.8 +62 53 43   0.07100 1.0375   126.5    50.4    22.4
...
2023 11 03    01 50 02.1 +58 02 16   0.02201 1.0082   136.1    43.0    19.6
2023 11 04    02 44 02.8 +51 35 04   0.01434 1.0035   143.5    36.0    18.5
2023 11 05    04 14 53.7 +28 18 36   0.0079990.9989   154.2    25.6    16.9
...
2023 11 11    10 17 12.0 -63 18 08   0.04567 0.9728    66.3   111.2    23.7
...
2023 11 19    11 05 53.9 -63 53 08   0.1110  0.9429    62.8   111.2    25.5
...
2023 12 04    11 41 36.0 -63 19 17   0.2304  0.9059    63.3   103.6    26.6
M. P. C. Staff               (C) Copyright 2023 MPC           M.P.E.C. 2023-V36
    
    
More information about the Iaude
mailing list